PBO Station Position Time Series. Reference Frame : NAM14
Format Version,1.1.0
4-character ID,P691
Station name,MSH_StdBkrWA2006
Begin Date, 2006-09-30
End Date, 2019-10-07
Release Date, 2019-10-08
Reference position, 46.2314836565 North Latitude, -122.2269650153 East Longitude, 1182.89397 meters elevation,
Date, North (mm), East (mm), Vertical (mm), North Std. Deviation (mm), East Std. Deviation (mm),              Vertical Std. Deviation (mm), Quality,
2006-09-30,0.00, 0.00, 0.00, 2.34, 1.69, 7.83, repro,
2006-10-01,0.17, -0.11, -6.11, 2.33, 1.66, 7.62, repro,
2006-10-02,-0.23, -0.01, -10.90, 2.35, 1.72, 7.78, repro,
2006-10-03,-0.78, 0.01, -13.24, 2.45, 1.80, 8.21, repro,
2006-10-04,0.72, 0.26, -10.51, 2.29, 1.63, 7.48, repro,
2006-10-05,0.75, 1.11, -8.08, 2.32, 1.63, 7.53, repro,
2006-10-06,0.58, -0.15, -6.64, 2.31, 1.63, 7.50, repro,
2006-10-07,-0.36, -1.02, -20.10, 2.34, 1.68, 7.66, repro,
2006-10-08,1.29, 0.26, -20.29, 2.39, 1.72, 7.86, repro,
2006-10-09,0.31, 0.46, -26.64, 2.32, 1.68, 7.64, repro,
2006-10-10,-0.36, -0.25, -11.84, 2.34, 1.67, 7.75, repro,
2006-10-11,-0.12, 0.41, -10.39, 2.37, 1.68, 7.81, repro,
2006-10-12,0.58, 0.25, -7.69, 2.30, 1.63, 7.49, repro,
2006-10-13,-0.72, 0.20, -6.19, 2.25, 1.61, 7.33, repro,
2006-10-14,0.10, -0.24, -5.03, 2.27, 1.64, 7.45, repro,
2006-10-15,0.91, 1.09, 1.73, 2.34, 1.72, 7.77, repro,
2006-10-16,0.86, 0.06, -3.00, 2.30, 1.64, 7.58, repro,
2006-10-17,-1.27, -0.06, -9.56, 2.32, 1.68, 7.80, repro,
2006-10-18,-0.39, 0.43, -12.02, 2.24, 1.62, 7.41, repro,
2006-10-19,0.29, 0.36, -6.56, 2.41, 1.68, 7.88, repro,
2006-10-20,0.88, 0.96, -13.43, 2.61, 1.87, 8.99, repro,
2006-10-21,-0.02, 2.04, -17.22, 2.42, 1.72, 8.05, repro,
2006-10-22,-0.72, 0.94, -15.37, 2.33, 1.69, 7.79, repro,
2006-10-23,1.55, 1.05, -10.89, 2.29, 1.65, 7.56, repro,
2006-10-24,-0.54, -0.63, -9.14, 2.37, 1.72, 7.88, repro,
2006-10-25,-0.12, 0.53, -7.06, 2.45, 1.73, 8.04, repro,
2006-10-26,0.13, 0.84, -13.24, 2.30, 1.68, 7.66, repro,
2006-10-27,1.66, 0.79, -20.81, 2.33, 1.71, 7.73, repro,
2006-10-28,-0.72, 0.99, -16.47, 2.37, 1.69, 7.93, repro,
2006-10-29,1.07, -1.28, -8.35, 2.29, 1.69, 7.74, repro,
2006-10-30,1.70, 0.87, -8.83, 2.25, 1.64, 7.49, repro,
2006-10-31,-0.00, 0.64, -11.63, 2.22, 1.62, 7.43, repro,
2006-11-01,-0.94, 0.05, -9.69, 2.33, 1.68, 7.76, repro,
2006-11-02,0.70, 3.16, -11.28, 2.26, 1.64, 7.59, repro,
2006-11-03,0.95, 3.17, -12.37, 2.28, 1.65, 7.61, repro,
2006-11-04,1.40, 3.52, -15.80, 2.32, 1.69, 7.70, repro,
2006-11-05,3.96, 1.67, -17.03, 2.31, 1.66, 7.62, repro,
2006-11-06,1.36, 3.88, -11.03, 2.22, 1.61, 7.39, repro,
2006-11-07,0.92, 2.07, -11.41, 2.35, 1.67, 7.66, repro,
2006-11-08,-0.39, -0.34, -13.21, 2.36, 1.68, 7.66, repro,
2006-11-09,0.20, 1.49, -15.87, 2.42, 1.75, 7.92, repro,
2006-11-10,-3.41, 2.20, -14.56, 2.31, 1.63, 7.50, repro,
2006-11-11,0.07, -0.17, -13.43, 2.38, 1.68, 7.70, repro,
2006-11-12,-0.04, 1.53, -15.52, 2.43, 1.73, 7.86, repro,
2006-11-13,-0.00, 0.92, -5.61, 2.47, 1.78, 7.98, repro,
2006-11-14,-0.40, -1.08, -14.39, 2.23, 1.60, 7.32, repro,
2006-11-15,0.42, 1.84, -20.16, 2.22, 1.62, 7.47, repro,
2006-11-16,0.88, -0.78, -15.16, 2.25, 1.66, 7.56, repro,
2006-11-17,-0.82, 0.59, -21.89, 2.21, 1.60, 7.31, repro,
2006-11-18,-0.29, 0.60, -21.91, 2.22, 1.61, 7.41, repro,
2006-11-19,-3.22, 1.72, -22.00, 2.22, 1.63, 7.46, repro,
2006-11-20,-2.36, 1.56, -23.90, 2.21, 1.62, 7.39, repro,
2006-11-21,1.01, 1.74, -18.31, 2.23, 1.61, 7.35, repro,
2006-11-22,-1.73, 0.67, -17.40, 2.25, 1.66, 7.55, repro,
2006-11-23,-1.00, 0.60, -22.14, 2.26, 1.65, 7.57, repro,
2006-11-24,1.46, -0.95, -18.37, 2.32, 1.70, 7.78, repro,
2006-11-25,0.27, -2.24, -18.13, 2.21, 1.61, 7.34, repro,
2006-11-26,-1.23, 1.42, -19.95, 2.27, 1.63, 7.45, repro,
2006-11-27,0.71, -1.47, -22.90, 2.28, 1.63, 7.43, repro,
2006-11-28,-1.27, -0.17, -21.28, 2.35, 1.73, 7.83, repro,
2006-11-29,-0.09, 0.16, -25.00, 2.23, 1.63, 7.45, repro,
2006-11-30,-1.02, -0.56, -26.05, 2.27, 1.66, 7.62, repro,
2006-12-01,1.38, -0.68, -29.14, 2.19, 1.61, 7.27, repro,
2006-12-02,-0.12, 0.06, -31.66, 2.23, 1.62, 7.34, repro,
2006-12-03,-0.36, 0.21, -27.43, 2.24, 1.62, 7.38, repro,
2006-12-04,-1.38, -0.18, -34.07, 2.29, 1.66, 7.53, repro,
2006-12-05,-0.20, 0.14, -31.30, 2.25, 1.68, 7.54, repro,
2006-12-06,-0.60, 0.51, -32.45, 2.26, 1.68, 7.55, repro,
2006-12-07,-3.91, 0.14, -20.92, 2.25, 1.68, 7.57, repro,
2006-12-08,-3.30, -0.12, -17.73, 2.27, 1.67, 7.56, repro,
2006-12-09,-3.84, 2.22, -19.41, 2.26, 1.69, 7.59, repro,
2006-12-10,-0.75, 3.25, -24.30, 2.29, 1.69, 7.62, repro,
2006-12-11,0.15, 1.40, -13.51, 2.21, 1.63, 7.40, repro,
2006-12-12,-0.08, 1.20, -27.55, 2.29, 1.70, 7.63, repro,
2006-12-13,0.05, -0.73, -21.41, 2.22, 1.63, 7.42, repro,
2006-12-14,0.65, 0.52, -14.77, 2.20, 1.64, 7.39, repro,
2006-12-15,0.51, -0.89, -22.87, 2.31, 1.73, 7.81, repro,
2006-12-16,-1.77, 0.03, -23.75, 2.28, 1.70, 7.60, repro,
2006-12-17,-0.63, -0.81, -30.94, 2.27, 1.74, 7.76, repro,
2006-12-18,-0.30, -0.65, -25.37, 2.42, 1.83, 8.23, repro,
2006-12-19,-0.08, -1.82, -23.89, 2.29, 1.77, 7.83, repro,
2006-12-20,-3.77, -0.86, -29.30, 2.26, 1.75, 7.74, repro,
2006-12-21,0.45, 1.28, -30.68, 2.24, 1.73, 7.68, repro,
2006-12-22,0.24, 0.46, -31.96, 2.32, 1.80, 7.99, repro,
2006-12-23,0.46, -0.94, -26.69, 2.29, 1.74, 7.83, repro,
2006-12-24,-2.41, -0.59, -28.77, 2.20, 1.63, 7.33, repro,
2006-12-25,-1.50, -0.12, -32.74, 2.25, 1.74, 7.68, repro,
2006-12-26,-1.88, -0.14, -30.16, 2.25, 1.69, 7.57, repro,
2006-12-27,1.81, -0.64, -21.23, 2.28, 1.75, 7.77, repro,
2006-12-28,-0.08, -1.13, -25.47, 2.35, 1.83, 8.14, repro,
2006-12-29,0.12, -2.81, -45.93, 2.25, 1.68, 7.56, repro,
2006-12-30,-1.49, -0.70, -26.00, 2.27, 1.72, 7.61, repro,
2006-12-31,0.59, -1.43, -29.48, 2.45, 1.84, 8.23, repro,
2007-01-01,-0.81, -3.04, -34.16, 2.35, 1.79, 7.93, repro,
2007-01-02,-2.84, 1.40, -24.38, 2.35, 1.85, 8.17, repro,
2007-01-03,-4.54, -0.24, -21.31, 2.21, 1.69, 7.55, repro,
2007-01-04,-0.27, -3.40, -20.39, 2.20, 1.65, 7.36, repro,
2007-01-05,0.85, -2.59, -29.34, 2.20, 1.65, 7.35, repro,
2007-01-06,0.10, -3.08, -25.19, 2.26, 1.75, 7.72, repro,
2007-01-07,-0.01, 1.23, -30.26, 2.27, 1.65, 7.40, repro,
2007-01-08,-2.20, -1.80, -35.02, 2.26, 1.68, 7.50, repro,
2007-01-09,-3.32, -0.23, -33.58, 2.24, 1.64, 7.38, repro,
2007-01-10,-0.09, -1.08, -22.86, 2.27, 1.64, 7.29, repro,
2007-01-11,-0.79, -1.00, -30.21, 2.34, 1.67, 7.53, repro,
2007-01-12,-0.47, -0.95, -36.01, 2.23, 1.60, 7.30, repro,
2007-01-13,0.08, -1.29, -32.50, 2.17, 1.58, 7.11, repro,
2007-01-14,0.74, -0.23, -40.26, 2.20, 1.61, 7.21, repro,
2007-01-15,-0.66, -0.26, -40.19, 2.22, 1.62, 7.32, repro,
2007-01-16,-0.06, -1.63, -32.51, 2.21, 1.60, 7.18, repro,
2007-01-17,-0.13, -2.44, -36.38, 2.19, 1.62, 7.23, repro,
2007-01-18,0.50, -0.67, -37.59, 2.25, 1.67, 7.44, repro,
2007-01-19,-1.83, -1.83, -34.93, 2.22, 1.60, 7.31, repro,
2007-01-20,0.41, -0.74, -25.41, 2.22, 1.60, 7.32, repro,
2007-01-21,-0.99, 0.07, -34.42, 2.22, 1.62, 7.29, repro,
2007-01-22,-1.03, -0.20, -31.98, 2.19, 1.59, 7.17, repro,
2007-01-23,0.02, 0.22, -38.16, 2.18, 1.60, 7.24, repro,
2007-01-24,-1.73, 0.35, -29.18, 2.18, 1.58, 7.12, repro,
2007-01-25,-1.40, -1.53, -35.49, 2.22, 1.63, 7.25, repro,
2007-01-26,-0.58, -0.02, -32.89, 2.17, 1.58, 7.08, repro,
2007-01-27,-0.91, -0.53, -28.10, 2.18, 1.58, 7.09, repro,
2007-01-28,0.91, 0.01, -29.96, 2.16, 1.57, 7.04, repro,
2007-01-29,0.58, 0.17, -32.34, 2.18, 1.58, 7.08, repro,
2007-01-30,0.84, -0.16, -31.70, 2.26, 1.67, 7.38, repro,
2007-01-31,-0.96, 0.05, -27.08, 2.21, 1.61, 7.22, repro,
2007-02-01,-0.50, 0.52, -26.95, 2.21, 1.62, 7.23, repro,
2007-02-02,-0.86, -0.75, -21.81, 2.26, 1.65, 7.42, repro,
2007-02-03,-0.01, 0.53, -31.74, 2.23, 1.59, 7.20, repro,
2007-02-04,0.64, 0.74, -37.54, 2.22, 1.62, 7.28, repro,
2007-02-05,-0.03, -0.52, -26.49, 2.18, 1.59, 7.15, repro,
2007-02-06,-0.21, 0.49, -31.57, 2.18, 1.59, 7.12, repro,
2007-02-07,-4.29, -1.77, -28.35, 2.17, 1.58, 7.06, repro,
2007-02-08,-1.29, -1.67, -28.00, 2.19, 1.64, 7.22, repro,
2007-02-09,0.14, -0.08, -33.21, 2.28, 1.74, 7.55, repro,
2007-02-10,-1.68, 0.83, -23.41, 2.22, 1.64, 7.32, repro,
2007-02-11,-1.51, 2.02, -28.65, 2.18, 1.61, 7.18, repro,
2007-02-12,1.79, 0.13, -31.12, 2.20, 1.63, 7.28, repro,
2007-02-13,0.40, -0.39, -28.03, 2.14, 1.58, 7.04, repro,
2007-02-14,-0.55, -1.94, -32.45, 2.15, 1.58, 7.01, repro,
2007-02-15,0.34, -2.04, -24.28, 2.16, 1.58, 7.07, repro,
2007-02-16,-1.10, -1.34, -30.21, 2.17, 1.60, 7.16, repro,
2007-02-17,-1.43, -0.37, -33.64, 2.24, 1.64, 7.35, repro,
2007-02-18,-0.07, -0.15, -27.25, 2.16, 1.61, 7.19, repro,
2007-02-19,0.86, -0.32, -20.05, 2.20, 1.62, 7.21, repro,
2007-02-20,-0.00, -1.34, -12.78, 2.31, 1.71, 7.59, repro,
2007-02-21,0.30, -1.58, -22.15, 2.17, 1.58, 7.12, repro,
2007-02-22,-2.48, -1.26, -26.27, 2.18, 1.59, 7.18, repro,
2007-02-23,1.00, -1.75, -19.20, 2.28, 1.68, 7.57, repro,
2007-02-24,-1.04, 0.19, -31.36, 2.16, 1.58, 7.07, repro,
2007-02-25,-3.06, 0.86, -22.02, 2.21, 1.61, 7.17, repro,
2007-02-26,-3.36, 0.07, -18.31, 2.19, 1.60, 7.24, repro,
2007-02-27,-4.15, -1.48, -23.17, 2.30, 1.68, 7.48, repro,
2007-02-28,0.33, -0.54, -23.15, 2.31, 1.72, 7.61, repro,
2007-03-01,-0.51, -1.99, -17.75, 2.33, 1.72, 7.60, repro,
2007-03-02,-1.34, -1.92, -29.23, 2.25, 1.65, 7.34, repro,
2007-03-03,0.75, -0.03, -34.67, 2.23, 1.63, 7.31, repro,
2007-03-04,0.25, -0.24, -32.30, 2.29, 1.68, 7.50, repro,
2007-03-05,-3.38, -1.58, -23.79, 2.27, 1.67, 7.46, repro,
2007-03-06,-7.65, -0.67, -29.55, 2.28, 1.68, 7.47, repro,
2007-03-07,-4.32, 2.77, -27.23, 2.23, 1.64, 7.34, repro,
2007-03-08,0.92, -1.45, -23.26, 2.28, 1.68, 7.51, repro,
2007-03-09,-1.39, -1.31, -30.09, 2.26, 1.67, 7.46, repro,
2007-03-10,-4.14, -0.34, -28.49, 2.35, 1.69, 7.64, repro,
2007-03-11,0.86, 2.04, -30.65, 2.23, 1.63, 7.25, repro,
2007-03-12,-0.81, 0.07, -29.57, 2.21, 1.62, 7.23, repro,
2007-03-13,0.20, -1.45, -26.44, 2.22, 1.61, 7.25, repro,
2007-03-14,0.24, -1.19, -33.55, 2.23, 1.62, 7.29, repro,
2007-03-15,0.66, 0.05, -32.25, 2.31, 1.70, 7.51, repro,
2007-03-16,-1.76, -0.13, -33.78, 2.33, 1.70, 7.56, repro,
2007-03-17,-2.86, -0.59, -26.10, 2.28, 1.67, 7.40, repro,
2007-03-18,-1.21, -0.18, -29.19, 2.19, 1.58, 7.09, repro,
2007-03-19,-2.25, 0.87, -29.63, 2.21, 1.59, 7.17, repro,
2007-03-20,-2.19, 0.88, -22.45, 2.29, 1.60, 7.14, repro,
2007-03-21,-2.18, -0.24, -22.85, 2.36, 1.65, 7.34, repro,
2007-03-22,-1.32, 0.86, -27.14, 2.31, 1.67, 7.49, repro,
2007-03-23,-1.65, -0.98, -29.25, 2.19, 1.56, 7.02, repro,
2007-03-24,0.41, 0.36, -26.67, 2.25, 1.63, 7.34, repro,
2007-03-25,-4.12, -0.68, -20.45, 2.20, 1.57, 7.05, repro,
2007-03-26,-2.70, 1.15, -32.32, 2.24, 1.62, 7.25, repro,
2007-03-27,-1.06, -0.33, -31.38, 2.33, 1.68, 7.57, repro,
2007-03-28,-1.09, -1.59, -31.00, 2.24, 1.59, 7.17, repro,
2007-03-29,-2.20, -0.85, -33.47, 2.26, 1.62, 7.30, repro,
2007-03-30,-2.63, -1.36, -31.74, 2.24, 1.61, 7.22, repro,
2007-03-31,-1.75, -0.53, -30.77, 2.22, 1.60, 7.13, repro,
2007-04-01,-0.30, -1.52, -28.39, 2.29, 1.68, 7.45, repro,
2007-04-02,-1.26, -1.84, -26.29, 2.24, 1.61, 7.19, repro,
2007-04-03,-0.09, -1.71, -32.38, 2.30, 1.67, 7.46, repro,
2007-04-04,-1.86, -0.40, -32.64, 2.29, 1.65, 7.35, repro,
2007-04-05,-1.53, -1.09, -25.49, 2.26, 1.65, 7.28, repro,
2007-04-06,-0.98, 0.07, -30.33, 2.24, 1.62, 7.20, repro,
2007-04-07,-3.95, -0.40, -27.27, 2.31, 1.66, 7.40, repro,
2007-04-08,-1.16, -1.51, -25.42, 2.19, 1.57, 7.06, repro,
2007-04-09,1.05, 0.71, -25.14, 2.21, 1.57, 7.09, repro,
2007-04-10,-1.93, -2.21, -18.31, 2.24, 1.59, 7.16, repro,
2007-04-11,-3.38, 0.58, -29.09, 2.29, 1.66, 7.40, repro,
2007-04-12,-2.04, -0.96, -24.31, 2.27, 1.65, 7.37, repro,
2007-04-13,0.09, -2.15, -19.98, 2.25, 1.60, 7.24, repro,
2007-04-14,-0.63, 0.21, -28.12, 2.25, 1.64, 7.32, repro,
2007-04-15,-2.23, -1.51, -22.52, 2.29, 1.67, 7.43, repro,
2007-04-16,-1.58, -1.88, -21.41, 2.24, 1.62, 7.27, repro,
2007-04-17,1.34, -1.18, -25.10, 2.21, 1.58, 7.10, repro,
2007-04-18,-0.93, 0.06, -33.13, 2.26, 1.61, 7.26, repro,
2007-04-19,-0.80, -1.29, -29.63, 2.23, 1.57, 7.11, repro,
2007-04-20,-0.44, -2.65, -21.76, 2.26, 1.65, 7.37, repro,
2007-04-21,-1.49, -1.33, -18.63, 2.25, 1.60, 7.21, repro,
2007-04-22,-3.37, -0.46, -23.89, 2.29, 1.65, 7.35, repro,
2007-04-23,-0.87, -2.06, -25.32, 2.33, 1.71, 7.63, repro,
2007-04-24,-0.84, -3.22, -18.03, 2.26, 1.60, 7.22, repro,
2007-04-25,-1.38, -1.13, -33.03, 2.34, 1.68, 7.58, repro,
2007-04-26,-2.03, -0.28, -27.86, 2.32, 1.66, 7.43, repro,
2007-04-27,-2.64, -2.91, -24.77, 2.34, 1.71, 7.68, repro,
2007-04-28,-0.78, -0.62, -27.11, 2.23, 1.58, 7.19, repro,
2007-04-29,-1.31, -1.34, -27.00, 2.23, 1.57, 7.17, repro,
2007-04-30,-1.65, -2.11, -28.15, 2.31, 1.62, 7.37, repro,
2007-05-01,-0.22, -0.73, -30.85, 2.46, 1.82, 8.22, repro,
2007-05-02,0.00, 3.55, -36.77, 2.33, 1.63, 7.51, repro,
2007-05-03,-1.81, -0.16, -25.17, 2.32, 1.63, 7.50, repro,
2007-05-04,-1.16, -0.44, -23.48, 2.22, 1.57, 7.15, repro,
2007-05-05,-0.71, 0.27, -33.74, 2.31, 1.71, 7.63, repro,
2007-05-06,0.95, -1.57, -23.29, 2.25, 1.57, 7.17, repro,
2007-05-07,-0.19, -1.12, -28.63, 2.30, 1.63, 7.46, repro,
2007-05-08,-1.30, 0.11, -24.48, 2.23, 1.57, 7.19, repro,
2007-05-09,-1.30, -0.42, -23.24, 2.23, 1.56, 7.18, repro,
2007-05-10,-1.62, -1.54, -28.07, 2.34, 1.64, 7.64, repro,
2007-05-11,-0.44, -0.77, -29.97, 2.33, 1.62, 7.54, repro,
2007-05-12,-1.22, -0.43, -27.17, 2.32, 1.64, 7.52, repro,
2007-05-13,-0.43, 0.01, -26.09, 2.37, 1.69, 7.63, repro,
2007-05-14,0.38, -0.29, -24.98, 2.34, 1.65, 7.50, repro,
2007-05-15,-1.30, -0.18, -29.24, 2.25, 1.57, 7.24, repro,
2007-05-16,-0.55, 0.31, -30.73, 2.26, 1.58, 7.25, repro,
2007-05-17,-0.75, 0.09, -31.31, 2.39, 1.77, 7.82, repro,
2007-05-18,0.45, 0.12, -26.62, 2.44, 1.76, 7.95, repro,
2007-05-19,2.41, 1.67, -30.30, 2.24, 1.57, 7.21, repro,
2007-05-20,-0.60, 0.28, -27.24, 2.34, 1.67, 7.57, repro,
2007-05-21,-1.49, -2.64, -20.27, 2.24, 1.59, 7.23, repro,
2007-05-22,-1.23, -1.23, -31.63, 2.24, 1.57, 7.18, repro,
2007-05-23,-0.91, -0.72, -32.86, 2.23, 1.57, 7.14, repro,
2007-05-24,-2.28, -1.02, -26.55, 2.45, 1.75, 7.86, repro,
2007-05-25,0.27, -0.83, -24.80, 2.29, 1.61, 7.36, repro,
2007-05-26,-0.86, 0.65, -24.86, 2.25, 1.57, 7.18, repro,
2007-05-27,-1.42, 0.12, -29.31, 2.36, 1.66, 7.56, repro,
2007-05-28,-3.11, -0.31, -30.52, 2.32, 1.63, 7.36, repro,
2007-05-29,-0.11, -1.06, -23.49, 2.26, 1.60, 7.24, repro,
2007-05-30,0.30, -0.12, -29.88, 2.35, 1.61, 7.38, repro,
2007-05-31,-0.46, -0.27, -27.52, 2.34, 1.67, 7.51, repro,
2007-06-01,-0.60, 1.26, -29.83, 2.24, 1.58, 7.18, repro,
2007-06-02,-1.41, -0.61, -20.67, 2.23, 1.58, 7.18, repro,
2007-06-03,-3.63, 0.34, -33.14, 2.25, 1.58, 7.22, repro,
2007-06-04,0.18, -0.30, -24.41, 2.30, 1.63, 7.36, repro,
2007-06-05,-1.58, 0.56, -20.00, 2.29, 1.58, 7.29, repro,
2007-06-06,-0.25, -1.98, -16.70, 2.33, 1.66, 7.43, repro,
2007-06-07,-0.19, -0.95, -22.55, 2.48, 1.85, 8.18, repro,
2007-06-08,-0.74, -1.20, -24.35, 2.23, 1.57, 7.12, repro,
2007-06-09,-1.39, -1.64, -24.02, 2.24, 1.58, 7.11, repro,
2007-06-10,0.25, 0.32, -32.48, 2.25, 1.60, 7.24, repro,
2007-06-11,-0.63, -0.56, -26.74, 2.29, 1.66, 7.42, repro,
2007-06-12,-0.90, 0.43, -27.45, 2.25, 1.63, 7.27, repro,
2007-06-13,-0.95, -0.73, -31.31, 2.23, 1.57, 7.13, repro,
2007-06-14,0.28, -0.46, -33.37, 2.28, 1.62, 7.24, repro,
2007-06-15,-0.56, -0.94, -30.42, 2.34, 1.66, 7.45, repro,
2007-06-16,0.66, -0.62, -27.90, 2.22, 1.57, 7.10, repro,
2007-06-17,1.50, -0.60, -28.60, 2.27, 1.60, 7.22, repro,
2007-06-18,0.05, 0.05, -26.47, 2.23, 1.56, 7.08, repro,
2007-06-19,-0.16, -0.22, -23.96, 2.24, 1.57, 7.12, repro,
2007-06-20,-0.48, -0.83, -30.74, 2.24, 1.58, 7.18, repro,
2007-06-21,0.63, -0.78, -27.57, 2.23, 1.58, 7.16, repro,
2007-06-22,0.37, -0.25, -32.20, 2.22, 1.58, 7.17, repro,
2007-06-23,0.40, 0.49, -29.35, 2.23, 1.57, 7.11, repro,
2007-06-24,-1.17, -0.71, -20.18, 2.28, 1.61, 7.34, repro,
2007-06-25,-0.27, -0.83, -27.62, 2.24, 1.57, 7.14, repro,
2007-06-26,1.17, -1.63, -31.44, 2.26, 1.62, 7.29, repro,
2007-06-27,-0.41, -0.23, -30.64, 2.27, 1.61, 7.29, repro,
2007-06-28,-0.54, 2.37, -38.34, 2.23, 1.60, 7.25, repro,
2007-06-29,0.16, 4.24, -30.31, 2.26, 1.60, 7.25, repro,
2007-06-30,0.72, -1.26, -27.30, 2.24, 1.57, 7.14, repro,
2007-07-01,-1.38, -1.03, -31.47, 2.27, 1.60, 7.29, repro,
2007-07-02,-0.02, -0.93, -27.99, 2.22, 1.56, 7.08, repro,
2007-07-03,0.14, -1.81, -29.53, 2.32, 1.66, 7.43, repro,
2007-07-04,-2.16, -1.12, -25.92, 2.25, 1.61, 7.21, repro,
2007-07-05,-1.50, -1.98, -29.82, 2.24, 1.57, 7.08, repro,
2007-07-06,0.18, -0.19, -27.94, 2.34, 1.66, 7.49, repro,
2007-07-07,-0.73, -0.19, -26.25, 2.22, 1.55, 7.03, repro,
2007-07-08,-2.28, -0.59, -20.16, 2.22, 1.56, 7.08, repro,
2007-07-09,0.08, -0.84, -27.12, 2.33, 1.67, 7.46, repro,
2007-07-10,-0.11, 0.19, -26.37, 2.24, 1.56, 7.07, repro,
2007-07-11,-0.80, -1.83, -16.63, 2.25, 1.57, 7.13, repro,
2007-07-12,-2.39, -0.19, -38.81, 2.26, 1.60, 7.25, repro,
2007-07-13,-0.24, 0.72, -26.89, 2.27, 1.63, 7.32, repro,
2007-07-14,-2.33, 0.04, -17.70, 2.31, 1.66, 7.61, repro,
2007-07-15,2.48, 0.02, -28.32, 2.24, 1.58, 7.17, repro,
2007-07-16,-0.03, 0.25, -23.47, 2.27, 1.62, 7.35, repro,
2007-07-17,-1.15, -0.59, -20.89, 2.34, 1.68, 7.50, repro,
2007-07-18,-0.97, 0.06, -20.44, 2.24, 1.57, 7.10, repro,
2007-07-19,-3.73, -1.92, -18.67, 2.29, 1.60, 7.29, repro,
2007-07-20,-1.98, 1.66, -20.40, 2.26, 1.59, 7.24, repro,
2007-07-21,-1.51, 3.62, -33.91, 2.23, 1.59, 7.18, repro,
2007-07-22,-5.51, 1.32, -20.53, 2.24, 1.58, 7.13, repro,
2007-07-23,0.25, 0.93, -24.90, 2.22, 1.57, 7.02, repro,
2007-07-24,-0.30, -0.55, -17.88, 2.32, 1.66, 7.45, repro,
2007-07-25,-0.43, -1.21, -18.43, 2.30, 1.63, 7.39, repro,
2007-07-26,-0.66, -0.89, -23.82, 2.28, 1.61, 7.27, repro,
2007-07-27,-0.48, 0.58, -22.29, 2.23, 1.56, 7.09, repro,
2007-07-28,-0.44, 1.59, -25.28, 2.30, 1.72, 7.57, repro,
2007-07-29,-2.09, 1.05, -19.06, 2.33, 1.66, 7.39, repro,
2007-07-30,-1.04, -1.08, -17.91, 2.32, 1.66, 7.49, repro,
2007-07-31,-1.28, 0.44, -19.41, 2.26, 1.61, 7.28, repro,
2007-08-01,-0.48, 0.25, -20.11, 2.26, 1.60, 7.22, repro,
2007-08-02,-1.11, -0.30, -14.97, 2.23, 1.57, 7.11, repro,
2007-08-03,-0.65, 0.11, -23.44, 2.22, 1.57, 7.10, repro,
2007-08-04,0.53, -0.27, -19.27, 2.35, 1.67, 7.53, repro,
2007-08-05,0.00, 0.25, -14.82, 2.23, 1.57, 7.14, repro,
2007-08-06,-1.09, -1.55, -13.67, 2.33, 1.66, 7.46, repro,
2007-08-07,-1.23, -0.08, -14.53, 2.30, 1.63, 7.37, repro,
2007-08-08,-0.66, -1.24, -13.09, 2.23, 1.56, 7.05, repro,
2007-08-09,-0.28, 0.42, -14.03, 2.29, 1.61, 7.28, repro,
2007-08-10,0.12, -0.69, -15.84, 2.29, 1.60, 7.26, repro,
2007-08-11,-0.88, -0.15, -17.66, 2.26, 1.60, 7.25, repro,
2007-08-12,0.01, 0.30, -10.98, 2.22, 1.57, 7.13, repro,
2007-08-13,0.08, 0.35, -22.18, 2.21, 1.56, 7.08, repro,
2007-08-14,0.36, -0.63, -23.77, 2.38, 1.68, 7.59, repro,
2007-08-15,-0.69, 1.17, -18.80, 2.38, 1.68, 7.61, repro,
2007-08-16,-2.61, -1.12, -12.81, 2.32, 1.63, 7.40, repro,
2007-08-17,-0.22, -0.24, -19.29, 2.31, 1.63, 7.34, repro,
2007-08-18,-3.26, -0.19, -14.94, 2.39, 1.66, 7.56, repro,
2007-08-19,-1.14, -0.47, -16.15, 2.37, 1.65, 7.51, repro,
2007-08-20,-0.92, -1.18, -14.41, 2.40, 1.66, 7.53, repro,
2007-08-21,-1.60, -0.92, -19.65, 2.34, 1.63, 7.39, repro,
2007-08-22,-0.97, -0.94, -14.79, 2.40, 1.67, 7.57, repro,
2007-08-23,-1.33, -0.80, -14.99, 2.28, 1.58, 7.23, repro,
2007-08-24,-0.46, -0.03, -15.73, 2.44, 1.69, 7.72, repro,
2007-08-25,0.46, -0.11, -24.17, 2.32, 1.63, 7.38, repro,
2007-08-26,1.52, -1.00, -11.98, 2.37, 1.67, 7.55, repro,
2007-08-27,0.76, -1.16, -17.79, 2.39, 1.69, 7.61, repro,
2007-08-28,-1.17, -0.60, -18.53, 2.38, 1.68, 7.61, repro,
2007-08-29,1.76, -1.87, -18.28, 2.34, 1.65, 7.44, repro,
2007-08-30,-3.31, 1.28, -24.47, 2.32, 1.64, 7.35, repro,
2007-08-31,0.91, -0.53, -22.02, 2.36, 1.69, 7.52, repro,
2007-09-01,-1.62, -0.56, -19.56, 2.47, 1.78, 7.93, repro,
2007-09-02,2.26, -2.75, -20.31, 2.35, 1.66, 7.50, repro,
2007-09-03,-0.27, -0.05, -20.35, 2.35, 1.66, 7.48, repro,
2007-09-04,0.68, -0.17, -21.03, 2.38, 1.67, 7.54, repro,
2007-09-05,-0.58, -0.45, -6.76, 2.33, 1.63, 7.36, repro,
2007-09-06,0.69, -1.08, -11.66, 2.32, 1.62, 7.33, repro,
2007-09-07,0.51, -1.20, -17.45, 2.34, 1.65, 7.43, repro,
2007-09-08,0.76, -0.87, -18.88, 2.41, 1.71, 7.70, repro,
2007-09-09,-0.44, -0.83, -17.98, 2.45, 1.74, 7.85, repro,
2007-09-10,0.21, -0.29, -17.02, 2.33, 1.63, 7.32, repro,
2007-09-11,-0.56, -0.00, -18.54, 2.33, 1.63, 7.35, repro,
2007-09-12,-1.95, 0.10, -22.76, 2.33, 1.64, 7.39, repro,
2007-09-13,-0.16, -0.95, -19.18, 2.37, 1.66, 7.48, repro,
2007-09-14,0.06, -0.71, -19.22, 2.40, 1.71, 7.74, repro,
2007-09-15,-0.92, -1.14, -14.63, 2.42, 1.69, 7.74, repro,
2007-09-16,-0.79, -0.32, -18.50, 2.37, 1.67, 7.61, repro,
2007-09-17,-0.66, 0.48, -7.26, 2.39, 1.67, 7.63, repro,
2007-09-18,0.39, -1.33, -17.36, 2.34, 1.70, 7.65, repro,
2007-09-19,-0.62, 0.34, -20.41, 2.26, 1.59, 7.22, repro,
2007-09-20,-0.51, -1.58, -14.37, 2.27, 1.58, 7.22, repro,
2007-09-21,0.35, -0.38, -13.42, 2.34, 1.63, 7.45, repro,
2007-09-22,0.81, -1.80, -19.03, 2.35, 1.63, 7.43, repro,
2007-09-23,-1.70, -0.02, -15.86, 2.38, 1.66, 7.48, repro,
2007-09-24,-0.61, 0.29, -13.39, 2.42, 1.65, 7.60, repro,
2007-09-25,0.01, 0.22, -17.37, 2.35, 1.62, 7.44, repro,
2007-09-26,-1.71, -0.09, -18.25, 2.31, 1.60, 7.29, repro,
2007-09-27,-1.36, 0.60, -17.10, 2.39, 1.64, 7.61, repro,
2007-09-28,0.48, -0.02, -16.71, 2.34, 1.66, 7.45, repro,
2007-09-29,-1.10, 0.03, -15.89, 2.26, 1.61, 7.29, repro,
2007-09-30,-2.48, -0.26, -16.24, 2.29, 1.62, 7.33, repro,
2007-10-01,0.89, 0.69, -13.66, 2.34, 1.67, 7.51, repro,
2007-10-02,-0.28, 1.52, -20.38, 2.41, 1.72, 7.81, repro,
2007-10-03,-0.03, -0.81, -8.99, 2.32, 1.63, 7.47, repro,
2007-10-04,-1.67, 0.55, -15.95, 2.30, 1.65, 7.52, repro,
2007-10-05,0.57, 0.50, -15.73, 2.39, 1.72, 7.78, repro,
2007-10-06,0.37, 1.13, -16.53, 2.33, 1.66, 7.49, repro,
2007-10-07,-1.08, 1.68, -18.15, 2.50, 1.76, 7.97, repro,
2007-10-08,0.67, 1.13, -25.12, 2.66, 1.79, 8.32, repro,
2007-10-09,0.94, 6.10, -24.19, 2.43, 1.77, 7.93, repro,
2007-10-10,0.51, 1.69, -18.74, 2.52, 1.71, 7.94, repro,
2007-10-11,-0.22, 1.11, -14.93, 2.39, 1.73, 7.68, repro,
2007-10-12,-0.87, 0.29, -16.63, 2.34, 1.66, 7.58, repro,
2007-10-13,-0.28, 0.38, -14.41, 2.29, 1.61, 7.33, repro,
2007-10-14,1.75, 0.04, -11.72, 2.32, 1.63, 7.43, repro,
2007-10-15,-5.95, 2.05, -10.73, 2.28, 1.61, 7.32, repro,
2007-10-16,0.77, 2.71, -20.23, 2.34, 1.66, 7.47, repro,
2007-10-17,-0.46, 1.39, -15.73, 2.30, 1.65, 7.47, repro,
2007-10-18,0.43, 3.94, -31.38, 2.36, 1.67, 7.55, repro,
2007-10-19,1.15, 0.98, -11.69, 2.30, 1.61, 7.35, repro,
2007-10-20,2.04, 2.01, -5.60, 2.30, 1.62, 7.42, repro,
2007-10-21,-0.47, 0.42, -22.68, 2.28, 1.62, 7.35, repro,
2007-10-22,-0.14, -0.14, -12.59, 2.27, 1.63, 7.44, repro,
2007-10-23,-0.97, 1.42, -29.49, 2.38, 1.70, 7.72, repro,
2007-10-24,-0.99, 3.54, -21.06, 2.39, 1.71, 7.73, repro,
2007-10-25,-0.39, 0.75, -18.22, 2.30, 1.61, 7.36, repro,
2007-10-26,0.26, 2.26, -27.89, 2.30, 1.64, 7.42, repro,
2007-10-27,-0.30, 1.37, -23.61, 2.33, 1.66, 7.49, repro,
2007-10-28,0.11, 0.95, -22.96, 2.25, 1.60, 7.24, repro,
2007-10-29,-0.66, 0.66, -17.48, 2.28, 1.61, 7.32, repro,
2007-10-30,1.56, 0.93, -18.89, 2.35, 1.66, 7.50, repro,
2007-10-31,-0.53, 1.67, -21.16, 2.31, 1.63, 7.50, repro,
2007-11-01,1.15, 1.77, -18.48, 2.26, 1.62, 7.38, repro,
2007-11-02,0.58, 0.71, -21.64, 2.21, 1.57, 7.12, repro,
2007-11-03,0.66, 0.34, -19.62, 2.24, 1.58, 7.16, repro,
2007-11-04,0.99, -0.09, -17.89, 2.29, 1.63, 7.37, repro,
2007-11-05,0.36, 0.09, -21.48, 2.23, 1.60, 7.21, repro,
2007-11-06,-0.72, 0.52, -25.88, 2.34, 1.68, 7.72, repro,
2007-11-07,0.34, 1.67, -22.96, 2.27, 1.62, 7.43, repro,
2007-11-08,0.55, 0.25, -25.10, 2.29, 1.62, 7.37, repro,
2007-11-09,-1.09, -0.06, -18.05, 2.29, 1.62, 7.33, repro,
2007-11-10,-0.16, 0.95, -25.05, 2.27, 1.61, 7.34, repro,
2007-11-11,0.17, 0.26, -16.16, 2.26, 1.58, 7.24, repro,
2007-11-12,-3.65, 1.67, -16.67, 2.25, 1.60, 7.30, repro,
2007-11-13,0.14, -2.22, -13.44, 2.22, 1.57, 7.16, repro,
2007-11-14,0.85, 0.38, -20.77, 2.39, 1.69, 7.67, repro,